Location: Caltech
(34.1382°N, 118.1253°W)
Time: 01:45:14
(UTC-07:00)

Iridium 21 - Visible Passes

Search period start: 23 May 2017 00:00
Search period end: 02 June 2017 00:00
Orbit: 776 x 779 km, 86.4° (Epoch: 22 May)

Date Brightness Start Highest point End Pass type
(mag) Time Alt. Az. Time Alt. Az. Time Alt. Az.
23 May 7.7 01:36:53 18° NW 01:36:53 18° NW 01:38:52 10° NNW visible
23 May 7.8 23:22:52 14° NE 23:22:52 14° NE 23:24:14 10° NE visible
24 May 7.2 01:03:20 28° NW 01:03:20 28° NW 01:06:06 10° NNW visible
25 May 6.9 00:29:47 36° N 00:29:47 36° N 00:32:49 10° N visible
25 May 7.0 23:56:14 31° NNE 23:56:14 31° NNE 23:59:09 10° NNE visible
26 May 7.9 01:36:42 13° WNW 01:36:42 13° WNW 01:38:00 10° NW visible
26 May 7.4 23:22:40 21° NE 23:22:40 21° NE 23:25:02 10° NNE visible
27 May 7.4 01:03:08 23° NW 01:03:08 23° NW 01:05:48 10° NNW visible
27 May 7.8 22:49:06 12° ENE 22:49:06 12° ENE 22:49:58 10° NE visible
28 May 6.9 00:29:34 36° NNW 00:29:34 36° NNW 00:32:48 10° N visible
28 May 6.6 23:55:59 41° NNE 23:55:59 41° NNE 23:59:22 10° N visible
29 May 6.9 23:22:24 30° NE 23:22:24 30° NE 23:25:32 10° NNE visible
30 May 7.7 01:02:52 18° WNW 01:02:52 18° WNW 01:05:15 10° NW visible
30 May 7.4 22:48:49 18° ENE 22:48:49 18° ENE 22:51:09 10° NE visible
31 May 7.0 00:29:16 31° NW 00:29:16 31° NW 00:32:38 10° NNW visible
31 May 6.4 23:55:40 47° NNW 23:55:40 47° NNW 23:59:26 10° N visible
01 Jun 6.3 23:22:04 44° NE 23:22:04 44° NE 23:25:51 10° N visible
